timestamp,wind_dir_avg,wind_spd_avg,wind_spd_max_dir,wind_spd_gust,battery_voltage,lat,long
2020-12-05 00:04:01+00:00,267.0,6.62,272.0,7.17,12.65,47.59359,-54.27349
2020-12-05 00:14:01+00:00,246.0,6.62,248.0,7.21,12.65,47.59359,-54.27349
2020-12-05 00:24:01+00:00,245.0,5.01,237.0,6.27,12.65,47.59359,-54.27349
2020-12-05 00:34:01+00:00,235.0,5.16,233.0,6.06,12.65,47.59359,-54.27349
2020-12-05 00:44:01+00:00,234.0,5.87,237.0,6.55,12.65,47.59359,-54.27349
2020-12-05 00:54:01+00:00,229.0,5.7,230.0,6.8,12.65,47.59359,-54.27349
2020-12-05 01:04:01+00:00,227.0,5.68,229.0,6.66,12.65,47.59359,-54.27349
2020-12-05 01:14:01+00:00,225.0,5.55,224.0,7.29,12.57,47.59359,-54.27349
2020-12-05 01:24:01+00:00,228.0,5.61,232.0,6.66,12.57,47.59359,-54.27349
2020-12-05 01:34:01+00:00,232.0,5.71,235.0,6.34,12.57,47.59359,-54.27349
2020-12-05 01:44:01+00:00,228.0,5.14,221.0,5.99,12.57,47.59359,-54.27349
2020-12-05 01:54:01+00:00,230.0,5.39,223.0,6.44,12.57,47.59359,-54.27349
2020-12-05 02:04:01+00:00,232.0,5.01,245.0,5.95,12.57,47.59359,-54.27349
2020-12-05 02:14:01+00:00,223.0,5.82,223.0,6.59,12.57,47.59359,-54.27349
2020-12-05 02:24:01+00:00,223.0,4.91,222.0,5.91,12.57,47.59359,-54.27349
2020-12-05 02:34:01+00:00,215.0,5.5,217.0,6.43,12.57,47.59359,-54.27349
2020-12-05 02:44:01+00:00,214.0,6.19,210.0,6.84,12.57,47.59359,-54.27349
2020-12-05 02:54:01+00:00,215.0,6.95,218.0,7.64,12.57,47.59359,-54.27349
2020-12-05 03:04:01+00:00,224.0,6.98,223.0,7.74,12.57,47.59359,-54.27349
2020-12-05 03:14:01+00:00,222.0,6.79,224.0,7.81,12.57,47.59359,-54.27349
2020-12-05 03:24:01+00:00,220.0,6.89,217.0,7.63,12.57,47.59359,-54.27349
2020-12-05 03:34:01+00:00,229.0,5.9,228.0,6.67,12.57,47.59359,-54.27349
2020-12-05 03:44:01+00:00,214.0,5.13,219.0,5.86,12.57,47.59359,-54.27349
2020-12-05 03:54:01+00:00,210.0,6.04,211.0,6.6,12.57,47.59359,-54.27349
2020-12-05 04:04:01+00:00,216.0,8.73,217.0,9.75,12.57,47.59359,-54.27349
2020-12-05 04:14:01+00:00,217.0,8.38,219.0,9.54,12.57,47.59359,-54.27349
2020-12-05 04:24:01+00:00,212.0,7.14,215.0,7.98,12.57,47.59359,-54.27349
2020-12-05 04:34:01+00:00,224.0,8.86,224.0,9.94,12.57,47.59359,-54.27349
2020-12-05 04:44:01+00:00,217.0,7.25,219.0,8.28,12.57,47.59359,-54.27349
2020-12-05 04:54:01+00:00,219.0,7.9,214.0,9.16,12.57,47.59359,-54.27349
2020-12-05 05:04:01+00:00,225.0,9.28,224.0,10.65,12.57,47.59359,-54.27349
2020-12-05 05:14:01+00:00,230.0,9.07,229.0,10.91,12.57,47.59359,-54.27349
2020-12-05 05:24:01+00:00,228.0,9.87,224.0,11.14,12.57,47.59359,-54.27349
2020-12-05 05:34:01+00:00,227.0,10.68,224.0,12.44,12.57,47.59359,-54.27349
2020-12-05 05:44:01+00:00,231.0,9.33,231.0,11.17,12.57,47.59359,-54.27349
2020-12-05 05:54:01+00:00,227.0,8.96,227.0,10.18,12.57,47.59359,-54.27349
2020-12-05 06:04:01+00:00,224.0,9.75,219.0,11.07,12.57,47.59359,-54.27349
2020-12-05 06:14:01+00:00,218.0,8.02,218.0,9.88,12.57,47.59359,-54.27349
2020-12-05 06:24:01+00:00,215.0,9.16,211.0,10.15,12.57,47.59359,-54.27349
2020-12-05 06:34:01+00:00,209.0,7.78,210.0,9.11,12.57,47.59359,-54.27349
2020-12-05 06:44:01+00:00,211.0,8.45,215.0,9.59,12.57,47.59359,-54.27349
2020-12-05 06:54:01+00:00,207.0,9.26,210.0,10.17,12.57,47.59359,-54.27349
2020-12-05 07:04:01+00:00,209.0,9.7,210.0,10.73,12.57,47.59359,-54.27349
2020-12-05 07:14:01+00:00,209.0,8.75,211.0,10.05,12.57,47.59359,-54.27349
2020-12-05 07:24:01+00:00,211.0,8.87,207.0,10.29,12.57,47.59359,-54.27349
2020-12-05 07:34:01+00:00,204.0,10.21,203.0,11.08,12.57,47.59359,-54.27349
2020-12-05 07:44:01+00:00,209.0,9.24,213.0,10.04,12.57,47.59359,-54.27349
2020-12-05 07:54:01+00:00,207.0,10.53,209.0,11.72,12.57,47.59359,-54.27349
2020-12-05 08:04:01+00:00,215.0,10.63,215.0,12.09,12.57,47.59359,-54.27349
2020-12-05 08:14:01+00:00,217.0,9.5,216.0,11.29,12.57,47.59359,-54.27349
2020-12-05 08:24:01+00:00,213.0,10.25,213.0,11.62,12.57,47.59359,-54.27349
2020-12-05 08:34:01+00:00,216.0,9.25,217.0,11.11,12.57,47.59359,-54.27349
2020-12-05 08:44:01+00:00,223.0,9.12,226.0,10.6,12.57,47.59359,-54.27349
2020-12-05 08:54:01+00:00,235.0,7.32,237.0,8.77,12.57,47.59359,-54.27349
2020-12-05 09:04:01+00:00,232.0,7.46,230.0,9.01,12.57,47.59359,-54.27349
2020-12-05 09:14:01+00:00,221.0,9.39,221.0,10.56,12.49,47.59359,-54.27349
2020-12-05 09:24:01+00:00,222.0,9.03,222.0,10.59,12.49,47.59359,-54.27349
2020-12-05 09:34:01+00:00,226.0,8.84,231.0,9.84,12.49,47.59359,-54.27349
2020-12-05 09:44:01+00:00,221.0,8.0,218.0,9.32,12.49,47.59359,-54.27349
2020-12-05 09:54:01+00:00,215.0,9.51,210.0,12.01,12.49,47.59359,-54.27349
2020-12-05 10:04:01+00:00,218.0,9.86,218.0,12.83,12.49,47.59359,-54.27349
2020-12-05 10:14:01+00:00,213.0,10.14,208.0,11.75,12.49,47.59359,-54.27349
2020-12-05 10:24:01+00:00,214.0,10.25,215.0,12.23,12.49,47.59359,-54.27349
2020-12-05 10:34:01+00:00,209.0,9.66,213.0,11.17,12.49,47.59359,-54.27349
2020-12-05 10:44:01+00:00,211.0,9.99,214.0,11.46,12.49,47.59359,-54.27349
2020-12-05 10:54:01+00:00,215.0,11.39,212.0,13.27,12.49,47.59359,-54.27349
2020-12-05 11:04:01+00:00,212.0,9.31,213.0,11.62,12.49,47.59359,-54.27349
2020-12-05 11:14:01+00:00,214.0,9.75,209.0,11.22,12.49,47.59359,-54.27349
2020-12-05 11:24:01+00:00,214.0,8.45,215.0,9.42,12.49,47.59359,-54.27349
2020-12-05 11:34:01+00:00,214.0,8.8,214.0,10.21,12.49,47.59359,-54.27349
2020-12-05 11:44:01+00:00,212.0,9.24,214.0,10.59,12.49,47.59359,-54.27349
2020-12-05 11:54:01+00:00,209.0,8.28,211.0,9.84,12.49,47.59359,-54.27349
2020-12-05 12:04:01+00:00,211.0,7.43,207.0,8.67,12.49,47.59359,-54.27349
2020-12-05 12:14:01+00:00,215.0,9.2,220.0,10.88,12.49,47.59359,-54.27349
2020-12-05 12:24:01+00:00,214.0,9.06,216.0,10.08,12.49,47.59359,-54.27349
2020-12-05 12:34:01+00:00,208.0,7.98,206.0,8.73,12.49,47.59359,-54.27349
2020-12-05 12:44:01+00:00,211.0,8.97,217.0,9.89,12.49,47.59359,-54.27349
2020-12-05 12:54:01+00:00,214.0,8.71,217.0,10.34,12.49,47.59359,-54.27349
2020-12-05 13:04:01+00:00,215.0,8.12,212.0,9.3,12.49,47.59359,-54.27349
2020-12-05 13:14:01+00:00,219.0,7.81,219.0,8.77,12.57,47.59359,-54.27349
2020-12-05 13:24:01+00:00,218.0,7.49,226.0,9.71,12.57,47.59359,-54.27349
2020-12-05 13:34:01+00:00,219.0,7.81,217.0,8.93,12.57,47.59359,-54.27349
2020-12-05 13:44:01+00:00,195.0,8.9,198.0,9.99,12.57,47.59359,-54.27349
2020-12-05 13:54:01+00:00,196.0,9.22,198.0,10.39,12.57,47.59359,-54.27349
2020-12-05 14:04:01+00:00,214.0,9.55,213.0,11.5,12.57,47.59359,-54.27349
2020-12-05 14:14:01+00:00,209.0,9.16,206.0,10.8,12.89,47.59359,-54.27349
2020-12-05 14:24:01+00:00,212.0,9.5,219.0,11.17,12.89,47.59359,-54.27349
2020-12-05 14:34:01+00:00,213.0,9.29,218.0,11.27,12.89,47.59359,-54.27349
2020-12-05 14:44:01+00:00,218.0,10.41,216.0,11.71,12.89,47.59359,-54.27349
2020-12-05 14:54:01+00:00,212.0,10.04,208.0,11.76,12.89,47.59359,-54.27349
2020-12-05 15:04:01+00:00,213.0,11.2,212.0,13.63,12.89,47.59359,-54.27349
2020-12-05 15:14:01+00:00,214.0,11.1,216.0,12.8,13.21,47.59359,-54.27349
2020-12-05 15:24:01+00:00,211.0,10.17,208.0,11.23,13.21,47.59359,-54.27349
2020-12-05 15:34:01+00:00,205.0,9.86,206.0,11.39,13.21,47.59359,-54.27349
2020-12-05 15:44:01+00:00,214.0,9.85,216.0,11.49,13.21,47.59359,-54.27349
2020-12-05 15:54:01+00:00,215.0,8.79,213.0,10.48,13.21,47.59359,-54.27349
2020-12-05 16:04:01+00:00,212.0,8.12,217.0,9.27,13.21,47.59359,-54.27349
2020-12-05 16:14:01+00:00,215.0,8.58,211.0,9.52,12.97,47.59359,-54.27349
2020-12-05 16:24:01+00:00,216.0,8.72,216.0,10.39,12.97,47.59359,-54.27349
2020-12-05 16:34:01+00:00,218.0,8.73,216.0,9.86,12.97,47.59359,-54.27349
2020-12-05 16:44:01+00:00,216.0,9.24,211.0,10.63,12.97,47.59359,-54.27349
2020-12-05 16:54:01+00:00,215.0,10.56,218.0,12.74,12.97,47.59359,-54.27349
2020-12-05 17:04:01+00:00,212.0,10.2,211.0,11.51,12.97,47.59359,-54.27349
2020-12-05 17:14:01+00:00,210.0,10.67,209.0,12.12,12.97,47.59359,-54.27349
2020-12-05 17:24:01+00:00,214.0,10.68,214.0,11.92,12.97,47.59359,-54.27349
2020-12-05 17:34:01+00:00,213.0,9.52,214.0,10.93,12.97,47.59359,-54.27349
2020-12-05 17:44:01+00:00,210.0,9.5,208.0,10.56,12.97,47.59359,-54.27349
2020-12-05 17:54:01+00:00,208.0,10.49,210.0,11.94,12.97,47.59359,-54.27349
2020-12-05 18:04:01+00:00,210.0,10.15,212.0,11.91,12.97,47.59359,-54.27349
2020-12-05 18:14:01+00:00,214.0,9.86,211.0,11.51,12.89,47.59359,-54.27349
2020-12-05 18:24:01+00:00,211.0,9.29,211.0,10.19,12.89,47.59359,-54.27349
2020-12-05 18:34:01+00:00,212.0,9.0,214.0,9.82,12.89,47.59359,-54.27349
2020-12-05 18:44:01+00:00,212.0,10.09,211.0,11.46,12.89,47.59359,-54.27349
2020-12-05 18:54:01+00:00,210.0,10.19,209.0,11.71,12.89,47.59359,-54.27349
2020-12-05 19:04:01+00:00,208.0,10.36,211.0,11.6,12.89,47.59359,-54.27349
2020-12-05 19:14:01+00:00,210.0,8.55,206.0,9.31,12.73,47.59359,-54.27349
2020-12-05 19:24:01+00:00,209.0,8.41,209.0,9.76,12.73,47.59359,-54.27349
2020-12-05 19:34:01+00:00,210.0,7.41,209.0,8.73,12.73,47.59359,-54.27349
2020-12-05 19:44:01+00:00,220.0,5.84,223.0,6.58,12.73,47.59359,-54.27349
2020-12-05 19:54:01+00:00,204.0,6.78,204.0,7.68,12.73,47.59359,-54.27349
2020-12-05 20:04:01+00:00,208.0,6.82,208.0,7.53,12.73,47.59359,-54.27349
2020-12-05 20:14:01+00:00,207.0,7.54,203.0,8.44,12.65,47.59359,-54.27349
2020-12-05 20:24:01+00:00,203.0,6.44,199.0,7.06,12.65,47.59359,-54.27349
2020-12-05 20:34:01+00:00,197.0,7.34,197.0,8.04,12.65,47.59359,-54.27349
2020-12-05 20:44:01+00:00,200.0,6.75,199.0,7.55,12.65,47.59359,-54.27349
2020-12-05 20:54:01+00:00,201.0,7.05,201.0,7.68,12.65,47.59359,-54.27349
2020-12-05 21:04:01+00:00,204.0,7.37,205.0,8.04,12.65,47.59359,-54.27349
2020-12-05 21:14:01+00:00,202.0,8.05,201.0,8.71,12.57,47.59359,-54.27349
2020-12-05 21:24:01+00:00,204.0,7.85,205.0,8.67,12.57,47.59359,-54.27349
2020-12-05 21:34:01+00:00,200.0,7.82,202.0,8.6,12.57,47.59359,-54.27349
2020-12-05 21:44:01+00:00,202.0,6.87,205.0,7.52,12.57,47.59359,-54.27349
2020-12-05 21:54:01+00:00,197.0,8.24,198.0,9.06,12.57,47.59359,-54.27349
2020-12-05 22:04:01+00:00,200.0,7.9,201.0,8.73,12.57,47.59359,-54.27349
2020-12-05 22:14:01+00:00,207.0,6.82,205.0,7.78,12.57,47.59359,-54.27349
2020-12-05 22:24:01+00:00,209.0,6.42,212.0,6.96,12.57,47.59359,-54.27349
2020-12-05 22:34:01+00:00,213.0,6.72,217.0,7.75,12.57,47.59359,-54.27349
2020-12-05 22:44:01+00:00,216.0,6.36,213.0,7.19,12.57,47.59359,-54.27349
2020-12-05 22:54:01+00:00,206.0,5.99,205.0,6.54,12.57,47.59359,-54.27349
2020-12-05 23:04:01+00:00,210.0,5.71,209.0,6.47,12.57,47.59359,-54.27349
2020-12-05 23:14:01+00:00,206.0,5.47,205.0,6.05,12.49,47.59359,-54.27349
2020-12-05 23:24:01+00:00,194.0,6.31,197.0,6.85,12.49,47.59359,-54.27349
2020-12-05 23:34:01+00:00,195.0,7.01,196.0,7.31,12.49,47.59359,-54.27349
2020-12-05 23:44:01+00:00,194.0,5.88,195.0,6.19,12.49,47.59359,-54.27349
2020-12-05 23:54:01+00:00,194.0,5.86,193.0,6.15,12.49,47.59359,-54.27349
